Content
SEND FEEDBACK

Daily
Averages
Monthly
Summary
United States of America

BROOKLYN, NEW YORK


Home > North America > United States > New York
Elevation: 2 feet     Latitude: 40 36N     Longitude: 073 59W

WEATHER
 
SELECT A DAY
Number of Records: 185,599;   Date Range: 1/1/95 - 9/18/14
 
SHARE

PRINT THIS DATA

[ ← Previous Day ]
WEATHER ALMANAC - SEPTEMBER 21, 2013
[ Next Day → ]
[ °C ]   °F
Weather ElementAverageHighLow
Temperature68 °F75 °F (2:51 pm)59 °F (4:51 am)
Dewpoint63.6 °F68 °F (12:37 pm)57 °F (4:51 am)
Humidity86 %93 % (4:51 am)73 % (1:51 pm)
Barometer29.87 in30.03 in (1:51 am)29.69 in (11:51 pm)
Wind Speed11.6 mph20.7 mph (1:51 pm)
Wind Gust28.8 mph (3:51 pm)
Weather ElementAverage
Visibility9.6 mi
Wind DirectionSSE (146.5 °)

Weather ElementTotal
Precipitation0.22 in
Cooling Degree Days2 (Base 65)
Growing Degree Days17 (Base 50)
Averaged from 26 records on September 21, 2013
WEATHER CONDITIONS BREAKOUT
WIND DIRECTION BREAKOUT
WEATHER BY HOUR - SEPTEMBER 21, 2013
[ °C ]   °F
Local TimeTemperatureDewpointHumidityBarometerVisibilityWind DirectionWind SpeedGust SpeedPrecipitationEventsConditions
1:51 AM62.1 °F59.0 °F90 %30.03 in10.0 miSW (220°)5.8 mphScattered Clouds
2:51 AM61.0 °F57.9 °F90 %30.01 in10.0 miSSW (210°)4.6 mphScattered Clouds
3:51 AM61.0 °F57.9 °F90 %29.99 in10.0 miSouth (190°)4.6 mphScattered Clouds
4:51 AM59.0 °F57.0 °F93 %29.99 in10.0 miCalmScattered Clouds
5:51 AM59.0 °F57.0 °F93 %29.98 in10.0 miSouth (180°)4.6 mphScattered Clouds
6:51 AM63.0 °F59.0 °F87 %29.99 in10.0 miSSW (200°)6.9 mphMostly Cloudy
7:51 AM64.0 °F60.1 °F87 %29.98 in10.0 miCalmMostly Cloudy
8:51 AM66.0 °F61.0 °F84 %29.96 in10.0 miCalmMostly Cloudy
9:10 AM66.2 °F60.8 °F83 %29.96 in10.0 miCalmMostly Cloudy
9:51 AM66.9 °F62.1 °F84 %29.95 in9.0 miSE (140°)4.6 mph0.00 inRainLight Rain
10:51 AM69.1 °F64.0 °F84 %29.92 in9.0 miSE (130°)9.2 mph0.00 inMostly Cloudy
11:51 AM68.0 °F66.0 °F93 %29.90 in6.0 miSouth (170°)10.4 mph0.17 inLight Drizzle
12:37 PM71.6 °F68.0 °F88 %29.88 in10.0 miSouth (170°)16.1 mph0.01 inMostly Cloudy
12:51 PM71.1 °F66.9 °F87 %29.88 in10.0 miSouth (180°)15.0 mph23.0 mph0.01 inMostly Cloudy
1:51 PM73.9 °F64.9 °F73 %29.85 in10.0 miSouth (170°)20.7 mphMostly Cloudy
2:51 PM75.0 °F66.0 °F73 %29.83 in10.0 miSouth (170°)19.6 mphMostly Cloudy
3:51 PM73.0 °F66.0 °F79 %29.80 in10.0 miSouth (170°)19.6 mph28.8 mphMostly Cloudy
4:42 PM73.4 °F66.2 °F78 %29.79 in10.0 miSouth (170°)17.3 mphMostly Cloudy
4:51 PM72.0 °F66.9 °F84 %29.79 in10.0 miSouth (170°)18.4 mph23.0 mphMostly Cloudy
5:51 PM71.1 °F66.0 °F84 %29.78 in10.0 miSSE (160°)18.4 mph24.2 mphMostly Cloudy
6:51 PM70.0 °F66.0 °F87 %29.76 in10.0 miSouth (170°)18.4 mph25.3 mphMostly Cloudy
7:51 PM70.0 °F66.9 °F90 %29.76 in10.0 miSSE (160°)17.3 mph24.2 mphOvercast
8:51 PM71.1 °F66.9 °F87 %29.74 in10.0 miSouth (170°)18.4 mphOvercast
9:51 PM71.1 °F66.9 °F87 %29.73 in10.0 miSSE (160°)16.1 mph27.6 mphOvercast
10:51 PM71.1 °F66.9 °F87 %29.71 in10.0 miSouth (170°)18.4 mph25.3 mph0.00 inOvercast
11:51 PM69.1 °F66.9 °F93 %29.69 in6.0 miSouth (180°)17.3 mph0.03 inRainLight Rain
Hourly data recorded from KJFK, located miles away from Brooklyn, New York







STORIES FROM OUR PARTNERS